period_start,C,m1,H,J0,J1,J2,J3,J4,J5,JA,JB,JC,JD,JJ,JK,JN,#
2013-07-25 00:00:50,0.02,0.26,0.00,34.56,37.25,39.56,5.71,31.79,1014.66,2011.01,3315.99,3211.24,3482.95,349.22,310.50,19.92,0000 0000 0000 0000 000000
2013-07-25 00:01:50,0.04,0.26,0.00,34.59,37.26,39.57,5.63,31.54,1014.65,2011.01,3315.94,3211.09,3482.86,350.21,311.21,19.93,0000 0000 0000 0000 000000
2013-07-25 00:02:50,0.03,0.26,0.00,34.57,37.27,39.57,5.78,31.25,1014.66,2011.01,3315.87,3211.04,3482.68,350.58,311.62,19.93,0000 0000 0000 0000 000000
2013-07-25 00:03:50,0.06,0.26,0.00,34.56,37.28,39.58,5.81,31.71,1014.65,2011.02,3315.64,3211.03,3482.46,349.21,310.43,19.94,0000 0000 0000 0000 000000
2013-07-25 00:04:51,0.07,0.26,0.00,34.54,37.28,39.59,5.75,31.38,1014.64,2011.01,3315.26,3211.00,3482.23,350.90,312.02,19.95,0000 0000 0000 0000 000000
2013-07-25 00:05:51,0.07,0.26,0.00,34.54,37.28,39.61,5.77,31.38,1014.65,2011.00,3315.11,3210.99,3482.13,349.70,310.93,19.95,0000 0000 0000 0000 000000
2013-07-25 00:06:51,0.02,0.26,0.00,34.52,37.29,39.59,5.82,31.58,1014.66,2011.00,3315.04,3210.98,3482.05,349.55,310.83,19.96,0000 0000 0000 0000 000000
2013-07-25 00:07:51,0.02,0.26,0.00,34.56,37.30,39.60,5.69,31.42,1014.65,2011.00,3315.01,3210.93,3482.02,351.14,312.21,19.96,0000 0000 0000 0000 000000
2013-07-25 00:08:51,0.01,0.26,0.00,34.60,37.30,39.62,5.76,31.50,1014.65,2011.00,3314.97,3210.80,3481.99,349.04,310.30,19.97,0000 0000 0000 0000 000000
2013-07-25 00:09:52,0.04,0.26,0.00,34.63,37.30,39.63,5.72,31.42,1014.65,2011.00,3314.82,3210.51,3481.87,349.49,310.67,19.98,0000 0000 0000 0000 000000
2013-07-25 00:10:52,0.10,0.26,0.00,34.61,37.31,39.63,5.68,31.38,1014.65,2011.00,3314.55,3210.25,3481.66,350.20,311.32,19.98,0000 0000 0000 0000 000000
2013-07-25 00:11:52,0.12,0.26,0.00,34.63,37.32,39.64,5.73,31.50,1014.65,2011.00,3314.31,3210.10,3481.39,350.65,311.70,19.99,0000 0000 0000 0000 000000
2013-07-25 00:12:53,0.09,0.26,0.00,34.60,37.33,39.63,5.71,31.63,1014.63,2011.00,3314.13,3210.03,3481.21,350.21,311.51,19.99,0000 0000 0000 0000 000000
2013-07-25 00:13:53,0.05,0.26,0.00,34.63,37.33,39.64,5.75,31.58,1014.64,2011.00,3314.05,3210.01,3481.10,349.44,310.24,20.00,0000 0000 0000 0000 000000
2013-07-25 00:14:53,0.02,0.26,0.00,34.60,37.33,39.65,5.77,31.67,1014.63,2010.97,3314.02,3210.00,3481.03,350.06,311.19,20.01,0000 0000 0000 0000 000000
2013-07-25 00:15:53,0.00,0.26,0.00,34.59,37.34,39.65,5.68,31.54,1014.65,2010.95,3314.00,3209.99,3481.01,349.18,310.68,20.01,0000 0000 0000 0000 000000
2013-07-25 00:16:53,-0.00,0.26,0.00,34.62,37.35,39.66,5.68,31.25,1014.64,2010.93,3313.91,3209.94,3480.99,350.00,311.13,20.02,0000 0000 0000 0000 000000
2013-07-25 00:17:53,-0.00,0.26,0.00,34.62,37.35,39.66,5.73,31.58,1014.59,2010.94,3313.81,3209.92,3480.98,349.92,311.05,20.02,0000 0000 0000 0000 000000
2013-07-25 00:18:54,0.03,0.26,0.00,34.66,37.35,39.67,5.63,31.50,1014.63,2010.94,3313.71,3209.91,3480.98,349.38,310.26,20.03,0000 0000 0000 0000 000000
2013-07-25 00:19:54,0.01,0.26,0.00,34.70,37.37,39.69,5.71,31.25,1014.63,2010.89,3313.47,3209.68,3480.84,350.88,311.83,20.03,0000 0000 0000 0000 000000
2013-07-25 00:20:54,0.06,0.26,0.00,34.72,37.37,39.70,5.73,31.46,1014.65,2010.82,3313.22,3209.41,3480.60,350.51,311.22,20.04,0000 0000 0000 0000 000000
2013-07-25 00:21:55,0.07,0.26,0.00,34.70,37.38,39.70,5.79,31.33,1014.64,2010.82,3313.10,3209.22,3480.48,350.78,311.34,20.05,0000 0000 0000 0000 000000
2013-07-25 00:22:55,0.04,0.26,0.00,34.71,37.38,39.71,5.72,31.42,1014.64,2010.78,3313.04,3209.12,3480.30,349.48,310.58,20.05,0000 0000 0000 0000 000000
2013-07-25 00:23:55,0.01,0.26,0.00,34.69,37.39,39.71,5.73,31.63,1014.66,2010.71,3313.01,3209.09,3480.14,349.15,310.14,20.06,0000 0000 0000 0000 000000
2013-07-25 00:24:55,-0.01,0.26,0.00,34.74,37.40,39.73,5.66,31.42,1014.65,2010.61,3313.00,3209.03,3480.05,349.55,310.72,20.06,0000 0000 0000 0000 000000
2013-07-25 00:25:55,-0.06,0.26,0.00,34.77,37.40,39.73,5.75,31.54,1014.66,2010.45,3312.99,3209.01,3480.02,350.30,311.07,20.07,0000 0000 0000 0000 000000
2013-07-25 00:26:55,-0.12,0.26,0.00,34.78,37.40,39.74,5.73,31.58,1014.66,2010.33,3312.90,3209.00,3480.00,349.60,310.61,20.08,0000 0000 0000 0000 000000
2013-07-25 00:27:56,-0.07,0.26,0.00,34.79,37.42,39.75,5.67,31.58,1014.66,2010.29,3312.81,3208.99,3479.98,349.03,309.77,20.08,0000 0000 0000 0000 000000
2013-07-25 00:28:56,-0.01,0.26,0.00,34.78,37.42,39.75,5.68,31.33,1014.65,2010.23,3312.67,3208.97,3479.99,349.28,310.33,20.09,0000 0000 0000 0000 000000
2013-07-25 00:29:56,-0.01,0.26,0.00,34.79,37.43,39.75,5.69,31.25,1014.65,2010.23,3312.45,3208.93,3479.95,350.22,311.15,20.09,0000 0000 0000 0000 000000
2013-07-25 00:30:56,0.05,0.26,0.00,34.80,37.43,39.76,5.69,31.33,1014.65,2010.15,3312.22,3208.81,3479.70,350.01,310.97,20.10,0000 0000 0000 0000 000000
2013-07-25 00:31:56,0.01,0.26,0.00,34.80,37.44,39.78,5.77,31.46,1014.65,2010.11,3312.11,3208.68,3479.45,350.35,311.26,20.10,0000 0000 0000 0000 000000
2013-07-25 00:32:57,0.03,0.26,0.00,34.82,37.45,39.78,5.86,31.46,1014.64,2010.05,3312.04,3208.37,3479.20,350.66,311.51,20.11,0000 0000 0000 0000 000000
2013-07-25 00:33:57,0.06,0.26,0.00,34.82,37.45,39.79,5.79,31.29,1014.66,2010.02,3312.01,3208.16,3479.08,350.27,311.17,20.12,0000 0000 0000 0000 000000
2013-07-25 00:34:57,0.04,0.26,0.00,34.83,37.45,39.79,5.75,31.42,1014.66,2010.00,3311.99,3208.07,3479.03,350.94,311.76,20.12,0000 0000 0000 0000 000000
2013-07-25 00:35:57,0.01,0.26,0.00,34.87,37.47,39.80,5.77,31.33,1014.65,2010.00,3311.97,3208.03,3479.00,350.32,311.34,20.13,0000 0000 0000 0000 000000
2013-07-25 00:36:58,0.00,0.26,0.00,34.87,37.47,39.81,5.78,31.38,1014.65,2010.00,3311.95,3208.01,3479.00,349.93,310.74,20.13,0000 0000 0000 0000 000000
2013-07-25 00:37:58,0.01,0.26,0.00,34.87,37.48,39.82,5.67,31.54,1014.65,2010.00,3311.85,3208.00,3478.97,349.96,310.65,20.14,0000 0000 0000 0000 000000
2013-07-25 00:38:58,0.01,0.26,0.00,34.88,37.48,39.82,5.77,31.54,1014.65,2010.00,3311.63,3208.00,3478.94,350.25,311.36,20.15,0000 0000 0000 0000 000000
2013-07-25 00:39:58,0.03,0.26,0.00,34.88,37.50,39.81,5.82,31.50,1014.66,2010.00,3311.31,3207.97,3478.78,350.65,311.46,20.15,0000 0000 0000 0000 000000
2013-07-25 00:40:58,0.06,0.26,0.00,34.84,37.50,39.83,5.80,31.63,1014.66,2010.00,3311.16,3207.91,3478.65,349.59,310.76,20.16,0000 0000 0000 0000 000000
2013-07-25 00:41:59,0.06,0.26,0.00,34.89,37.50,39.84,5.68,31.67,1014.64,2010.00,3311.06,3207.61,3478.39,350.85,312.00,20.16,0000 0000 0000 0000 000000
2013-07-25 00:42:59,0.11,0.27,0.00,34.91,37.50,39.85,5.78,31.63,1014.65,2010.00,3310.98,3207.30,3478.14,350.05,310.89,20.17,0000 0000 0000 0000 000000
2013-07-25 00:43:59,0.10,0.27,0.00,34.91,37.52,39.85,5.84,31.71,1014.64,2010.00,3310.88,3207.16,3478.05,350.88,311.62,20.18,0000 0000 0000 0000 000000
2013-07-25 00:44:59,0.05,0.27,0.00,34.90,37.53,39.87,5.66,31.67,1014.63,2010.00,3310.74,3207.07,3478.02,349.71,310.68,20.18,0000 0000 0000 0000 000000
2013-07-25 00:46:00,0.04,0.27,0.00,34.96,37.53,39.88,5.62,31.58,1014.64,2009.95,3310.45,3207.02,3478.00,349.39,310.09,20.19,0000 0000 0000 0000 000000
2013-07-25 00:47:00,0.02,0.27,0.00,34.96,37.53,39.87,5.72,31.46,1014.63,2009.96,3310.27,3207.00,3478.00,349.73,310.55,20.19,0000 0000 0000 0000 000000
2013-07-25 00:48:00,0.01,0.27,0.00,34.93,37.55,39.89,5.75,31.46,1014.64,2009.98,3310.14,3207.00,3477.99,350.83,311.46,20.20,0000 0000 0000 0000 000000
2013-07-25 00:49:01,0.03,0.27,0.00,34.92,37.55,39.90,5.64,31.46,1014.64,2009.97,3310.07,3207.00,3477.97,349.55,310.41,20.20,0000 0000 0000 0000 000000
2013-07-25 00:50:01,0.00,0.27,0.00,34.91,37.55,39.89,5.72,31.33,1014.63,2009.98,3310.02,3206.99,3477.87,350.47,311.25,20.21,0000 0000 0000 0000 000000
2013-07-25 00:51:01,0.03,0.27,0.00,34.95,37.56,39.91,5.76,31.42,1014.65,2009.98,3310.00,3206.94,3477.54,350.59,311.33,20.22,0000 0000 0000 0000 000000
2013-07-25 00:52:02,0.04,0.27,0.00,34.99,37.57,39.90,5.62,31.33,1014.64,2009.96,3310.00,3206.91,3477.36,350.53,311.22,20.22,0000 0000 0000 0000 000000
2013-07-25 00:53:02,0.02,0.27,0.00,34.98,37.58,39.91,5.67,31.46,1014.64,2009.95,3310.00,3206.74,3477.16,349.84,310.62,20.23,0000 0000 0000 0000 000000
2013-07-25 00:54:02,0.04,0.27,0.00,35.00,37.58,39.94,5.70,31.33,1014.65,2009.97,3309.97,3206.61,3477.10,350.80,311.45,20.23,0000 0000 0000 0000 000000
2013-07-25 00:55:02,0.05,0.27,0.00,35.02,37.59,39.93,5.82,31.54,1014.63,2009.94,3309.90,3206.42,3477.05,350.14,310.75,20.24,0000 0000 0000 0000 000000
2013-07-25 00:56:03,0.03,0.27,0.00,35.01,37.60,39.94,5.70,31.63,1014.65,2009.88,3309.69,3206.24,3477.02,349.35,309.99,20.25,0000 0000 0000 0000 000000
2013-07-25 00:57:03,0.01,0.27,0.00,35.00,37.60,39.96,5.69,31.42,1014.62,2009.80,3309.40,3206.11,3477.00,348.90,309.76,20.25,0000 0000 0000 0000 000000
2013-07-25 00:58:03,0.00,0.27,0.00,34.99,37.60,39.96,5.63,31.38,1014.63,2009.74,3309.20,3206.04,3476.99,349.39,310.12,20.26,0000 0000 0000 0000 000000
2013-07-25 00:59:03,-0.02,0.27,0.00,34.99,37.62,39.96,5.82,31.50,1014.64,2009.59,3309.08,3206.01,3476.94,351.08,311.56,20.26,0000 0000 0000 0000 000000
2013-07-25 01:00:04,-0.08,0.27,0.00,35.02,37.63,39.97,5.71,31.50,1014.58,2009.45,3309.03,3206.00,3476.82,349.65,310.73,20.27,0000 0000 0000 0000 000000
2013-07-25 01:01:04,-0.07,0.27,0.00,35.05,37.63,39.98,5.80,31.46,1014.57,2009.45,3309.01,3206.00,3476.65,350.70,311.07,20.27,0000 0000 0000 0000 000000
2013-07-25 01:02:04,0.01,0.27,0.00,35.04,37.63,39.98,5.54,31.33,1014.58,2009.39,3308.99,3205.98,3476.38,348.91,309.53,20.28,0000 0000 0000 0000 000000
2013-07-25 01:03:04,-0.03,0.27,0.00,35.02,37.65,39.99,5.83,31.42,1014.59,2009.27,3308.93,3205.94,3476.22,351.15,311.78,20.29,0000 0000 0000 0000 000000
2013-07-25 01:04:05,-0.04,0.27,0.00,35.04,37.65,40.01,5.72,31.33,1014.57,2009.18,3308.92,3205.88,3476.10,348.98,309.70,20.29,0000 0000 0000 0000 000000
2013-07-25 01:05:05,-0.02,0.27,0.00,35.11,37.65,40.02,5.75,31.50,1014.56,2009.13,3308.77,3205.77,3476.03,349.50,310.18,20.30,0000 0000 0000 0000 000000
2013-07-25 01:06:05,0.01,0.27,0.00,35.12,37.67,40.03,5.79,31.54,1014.60,2009.07,3308.54,3205.50,3476.01,350.02,310.93,20.30,0000 0000 0000 0000 000000
2013-07-25 01:07:05,0.05,0.27,0.00,35.11,37.68,40.03,5.63,31.13,1014.59,2009.04,3308.28,3205.23,3476.00,350.60,311.50,20.31,0000 0000 0000 0000 000000
2013-07-25 01:08:06,0.05,0.27,0.00,35.13,37.68,40.04,5.71,31.58,1014.55,2009.01,3308.12,3205.09,3475.99,350.59,310.38,20.32,0000 0000 0000 0000 000000
2013-07-25 01:09:06,0.03,0.27,0.00,35.15,37.68,40.04,5.71,31.42,1014.54,2009.01,3308.06,3205.03,3475.97,350.15,310.69,20.32,0000 0000 0000 0000 000000
2013-07-25 01:10:06,0.02,0.27,0.00,35.19,37.70,40.05,5.64,31.58,1014.56,2009.00,3308.02,3205.01,3475.96,349.01,309.65,20.33,0000 0000 0000 0000 000000
2013-07-25 01:11:07,0.00,0.27,0.00,35.16,37.70,40.06,5.75,31.42,1014.56,2009.00,3308.00,3205.00,3475.80,349.70,310.31,20.33,0000 0000 0000 0000 000000
2013-07-25 01:12:07,0.01,0.27,0.00,35.14,37.70,40.04,5.73,31.54,1014.57,2009.00,3308.00,3205.00,3475.66,350.17,310.73,20.34,0000 0000 0000 0000 000000
2013-07-25 01:13:07,0.02,0.27,0.00,35.13,37.71,40.06,5.71,31.54,1014.56,2009.00,3308.00,3205.00,3475.41,350.58,311.09,20.34,0000 0000 0000 0000 000000
2013-07-25 01:14:07,0.02,0.27,0.00,35.15,37.72,40.07,5.77,31.54,1014.57,2009.00,3308.00,3204.99,3475.24,350.25,310.66,20.35,0000 0000 0000 0000 000000
2013-07-25 01:15:08,0.02,0.27,0.00,35.15,37.73,40.08,5.73,31.29,1014.58,2009.00,3307.96,3204.96,3475.11,350.75,311.08,20.36,0000 0000 0000 0000 000000
2013-07-25 01:16:08,0.02,0.27,0.00,35.19,37.73,40.08,5.64,31.38,1014.58,2009.00,3307.84,3204.93,3475.04,350.21,310.72,20.36,0000 0000 0000 0000 000000
2013-07-25 01:17:08,0.03,0.27,0.00,35.14,37.75,40.08,5.72,31.29,1014.54,2009.00,3307.60,3204.73,3475.01,349.99,310.53,20.37,0000 0000 0000 0000 000000
2013-07-25 01:18:09,0.07,0.27,0.00,35.13,37.75,40.09,5.83,31.63,1014.53,2009.00,3307.29,3204.46,3475.00,350.38,310.91,20.37,0000 0000 0000 0000 000000
2013-07-25 01:19:09,0.10,0.27,0.00,35.16,37.75,40.10,5.74,31.50,1014.58,2009.00,3307.12,3204.23,3475.00,349.38,310.01,20.38,0000 0000 0000 0000 000000
2013-07-25 01:20:09,0.08,0.27,0.00,35.18,37.76,40.12,5.62,31.42,1014.58,2009.00,3306.92,3204.00,3474.58,348.58,309.29,20.39,0000 0000 0000 0000 000000
2013-07-25 01:21:10,0.15,0.27,0.00,35.22,37.77,40.13,5.69,31.38,1014.61,2009.00,3306.40,3203.44,3473.92,350.49,310.82,20.39,0000 0000 0000 0000 000000
2013-07-25 01:22:10,0.23,0.27,0.00,35.22,37.78,40.14,5.76,31.29,1014.62,2008.97,3306.15,3203.16,3473.50,350.39,311.00,20.40,0000 0000 0000 0000 000000
2013-07-25 01:23:10,0.12,0.27,0.00,35.18,37.78,40.13,5.77,31.38,1014.63,2008.96,3306.05,3203.06,3473.28,349.89,310.95,20.40,0000 0000 0000 0000 000000
2013-07-25 01:24:11,0.06,0.27,0.00,35.17,37.78,40.13,5.63,31.25,1014.62,2008.96,3306.02,3203.02,3473.16,349.69,310.57,20.41,0000 0000 0000 0000 000000
2013-07-25 01:25:11,0.01,0.27,0.00,35.18,37.79,40.13,5.71,31.25,1014.63,2008.97,3305.99,3202.99,3473.05,349.71,310.31,20.42,0000 0000 0000 0000 000000
2013-07-25 01:26:11,0.01,0.27,0.00,35.24,37.80,40.15,5.75,31.21,1014.59,2008.91,3305.88,3202.96,3473.02,350.80,311.20,20.42,0000 0000 0000 0000 000000
2013-07-25 01:27:12,-0.02,0.27,0.00,35.25,37.80,40.16,5.67,31.42,1014.57,2008.84,3305.73,3202.90,3473.00,348.78,309.03,20.43,0000 0000 0000 0000 000000
2013-07-25 01:28:12,0.03,0.28,0.00,35.22,37.81,40.17,5.73,31.25,1014.57,2008.83,3305.42,3202.80,3473.00,349.59,310.14,20.43,0000 0000 0000 0000 000000
2013-07-25 01:29:12,0.03,0.28,0.00,35.24,37.82,40.18,5.68,31.46,1014.60,2008.79,3305.23,3202.68,3472.99,349.94,310.43,20.44,0000 0000 0000 0000 000000
2013-07-25 01:30:12,0.05,0.28,0.00,35.24,37.83,40.18,5.88,31.58,1014.57,2008.75,3305.09,3202.40,3472.82,350.27,310.80,20.44,0000 0000 0000 0000 000000
2013-07-25 01:31:13,0.06,0.28,0.00,35.23,37.83,40.19,5.66,31.21,1014.60,2008.61,3305.03,3202.19,3472.64,349.75,309.98,20.45,0000 0000 0000 0000 000000
2013-07-25 01:32:13,-0.06,0.28,0.00,35.25,37.84,40.19,5.67,31.29,1014.60,2008.47,3305.01,3202.08,3472.42,350.28,310.72,20.46,0000 0000 0000 0000 000000
2013-07-25 01:33:13,-0.09,0.27,0.00,35.30,37.85,40.19,5.67,31.29,1014.58,2008.36,3304.99,3202.03,3472.20,349.12,309.29,20.46,0000 0000 0000 0000 000000
2013-07-25 01:34:14,-0.03,0.27,0.00,35.29,37.85,40.22,5.67,31.46,1014.57,2008.29,3304.98,3202.01,3472.09,348.93,309.88,20.47,0000 0000 0000 0000 000000
2013-07-25 01:35:14,-0.03,0.27,0.00,35.30,37.86,40.22,5.71,31.46,1014.55,2008.20,3304.92,3202.00,3472.03,350.14,310.54,20.47,0000 0000 0000 0000 000000
2013-07-25 01:36:14,-0.06,0.27,0.00,35.34,37.87,40.23,5.73,31.25,1014.59,2008.17,3304.92,3202.00,3472.01,349.81,310.24,20.48,0000 0000 0000 0000 000000
2013-07-25 01:37:14,-0.01,0.27,0.00,35.33,37.88,40.23,5.67,31.54,1014.62,2008.25,3304.82,3202.00,3472.00,348.71,309.26,20.49,0000 0000 0000 0000 000000
2013-07-25 01:38:15,0.03,0.27,0.00,35.37,37.88,40.25,5.76,31.29,1014.62,2008.15,3304.47,3201.93,3472.00,349.98,310.34,20.49,0000 0000 0000 0000 000000
2013-07-25 01:39:15,0.00,0.27,0.00,35.38,37.89,40.24,5.75,31.38,1014.61,2008.05,3304.24,3201.79,3471.97,350.86,311.16,20.50,0000 0000 0000 0000 000000
2013-07-25 01:40:15,-0.01,0.27,0.00,35.38,37.90,40.26,5.66,31.58,1014.59,2008.02,3304.11,3201.75,3471.94,349.65,309.92,20.50,0000 0000 0000 0000 000000
2013-07-25 01:41:15,0.02,0.27,0.00,35.41,37.90,40.26,5.67,31.50,1014.57,2008.02,3304.04,3201.51,3471.81,348.94,309.67,20.51,0000 0000 0000 0000 000000
2013-07-25 01:42:16,0.08,0.28,0.00,35.40,37.91,40.28,5.69,31.50,1014.59,2008.02,3303.58,3200.80,3471.03,349.55,310.29,20.52,0000 0000 0000 0000 000000
2013-07-25 01:43:16,0.39,0.28,0.00,35.39,37.92,40.27,5.76,31.63,1014.53,2008.00,3302.58,3199.67,3469.74,350.21,310.51,20.52,0000 0000 0000 0000 000000
2013-07-25 01:44:16,0.47,0.28,0.00,35.40,37.93,40.27,5.77,31.88,1014.54,2008.00,3302.18,3199.24,3469.19,350.11,310.40,20.53,0000 0000 0000 0000 000000
2013-07-25 01:45:17,0.20,0.28,0.00,35.41,37.93,40.29,5.85,31.63,1014.54,2008.00,3302.01,3199.08,3468.90,351.12,311.29,20.53,0000 0000 0000 0000 000000
2013-07-25 01:46:17,0.08,0.28,0.00,35.42,37.94,40.30,5.70,31.46,1014.52,2008.00,3301.92,3199.03,3468.73,350.56,310.78,20.54,0000 0000 0000 0000 000000
2013-07-25 01:47:17,0.04,0.28,0.00,35.39,37.95,40.31,5.60,31.33,1014.56,2008.00,3301.81,3199.00,3468.58,349.19,309.61,20.54,0000 0000 0000 0000 000000
2013-07-25 01:48:17,0.04,0.28,0.00,35.40,37.95,40.31,5.76,31.54,1014.55,2008.00,3301.60,3198.98,3468.37,350.93,310.72,20.55,0000 0000 0000 0000 000000
2013-07-25 01:49:18,0.05,0.28,0.00,35.41,37.96,40.31,5.67,31.33,1014.50,2008.00,3301.43,3198.94,3468.20,350.28,310.54,20.56,0000 0000 0000 0000 000000
2013-07-25 01:50:18,0.05,0.28,0.00,35.44,37.97,40.32,5.78,31.58,1014.49,2008.00,3301.22,3198.78,3468.11,348.68,309.09,20.56,0000 0000 0000 0000 000000
2013-07-25 01:51:18,0.07,0.28,0.00,35.45,37.98,40.33,5.72,31.46,1014.53,2007.99,3301.08,3198.49,3468.05,349.53,310.21,20.57,0000 0000 0000 0000 000000
2013-07-25 01:52:19,0.09,0.28,0.00,35.44,37.98,40.34,5.83,31.50,1014.48,2007.98,3301.03,3198.23,3468.02,350.15,310.33,20.57,0000 0000 0000 0000 000000
2013-07-25 01:53:19,0.06,0.28,0.00,35.46,38.00,40.36,5.71,31.50,1014.42,2007.99,3301.01,3198.10,3468.00,350.24,310.67,20.58,0000 0000 0000 0000 000000
2013-07-25 01:54:19,0.02,0.28,0.00,35.45,38.00,40.37,5.71,31.17,1014.47,2007.98,3301.00,3198.06,3467.98,350.86,310.99,20.59,0000 0000 0000 0000 000000
2013-07-25 01:55:19,0.01,0.28,0.00,35.48,38.00,40.36,5.61,31.21,1014.40,2007.98,3300.99,3198.02,3467.98,349.18,309.30,20.59,0000 0000 0000 0000 000000
2013-07-25 01:56:20,0.01,0.28,0.00,35.44,38.01,40.37,5.73,31.13,1014.41,2007.97,3300.94,3198.00,3467.89,350.83,310.97,20.60,0000 0000 0000 0000 000000
2013-07-25 01:57:20,0.02,0.28,0.00,35.42,38.02,40.37,5.79,31.46,1014.40,2007.98,3300.82,3198.00,3467.69,348.85,309.57,20.60,0000 0000 0000 0000 000000
2013-07-25 01:58:20,0.03,0.28,0.00,35.42,38.03,40.39,5.71,31.17,1014.42,2007.93,3300.64,3198.00,3467.40,349.59,309.90,20.61,0000 0000 0000 0000 000000
2013-07-25 01:59:21,0.04,0.29,0.00,35.44,38.03,40.39,5.77,31.04,1014.33,2007.95,3300.33,3197.99,3467.18,350.82,311.03,20.61,0000 0000 0000 0000 000000
2013-07-25 02:00:21,0.05,0.29,0.00,35.45,38.05,40.40,5.75,31.29,1014.28,2007.89,3300.12,3197.95,3467.08,349.73,309.81,20.62,0000 0000 0000 0000 000000
2013-07-25 02:01:21,0.02,0.29,0.00,35.49,38.05,40.41,5.67,31.42,1014.31,2007.79,3300.05,3197.82,3467.03,349.34,309.57,20.63,0000 0000 0000 0000 000000
2013-07-25 02:02:21,-0.04,0.29,0.00,35.53,38.05,40.41,5.64,31.33,1014.25,2007.62,3300.02,3197.65,3467.00,349.06,309.25,20.63,0000 0000 0000 0000 000000
2013-07-25 02:03:22,-0.06,0.28,0.00,35.54,38.06,40.43,5.76,31.29,1014.26,2007.53,3300.00,3197.39,3467.00,350.38,310.43,20.64,0000 0000 0000 0000 000000
2013-07-25 02:04:22,-0.05,0.28,0.00,35.57,38.08,40.44,5.68,31.08,1014.20,2007.35,3300.00,3197.20,3466.97,350.09,310.15,20.64,0000 0000 0000 0000 000000
2013-07-25 02:05:22,-0.10,0.28,0.00,35.57,38.08,40.44,5.82,31.29,1014.21,2007.18,3299.99,3197.08,3466.84,350.76,310.99,20.65,0000 0000 0000 0000 000000
2013-07-25 02:06:23,-0.05,0.28,0.00,35.56,38.08,40.45,5.77,31.08,1014.21,2007.10,3299.94,3197.03,3466.66,350.98,310.48,20.66,0000 0000 0000 0000 000000
2013-07-25 02:07:23,-0.01,0.28,0.00,35.58,38.10,40.45,5.73,31.13,1014.19,2007.08,3299.83,3197.02,3466.55,350.01,310.04,20.66,0000 0000 0000 0000 000000
2013-07-25 02:08:23,0.01,0.28,0.00,35.57,38.10,40.46,5.68,31.46,1014.21,2007.06,3299.71,3197.00,3466.35,349.40,309.90,20.67,0000 0000 0000 0000 000000
2013-07-25 02:09:23,0.02,0.28,0.00,35.57,38.10,40.47,5.76,31.50,1014.22,2007.02,3299.42,3197.00,3466.16,350.71,310.62,20.67,0000 0000 0000 0000 000000
2013-07-25 02:10:24,0.03,0.28,0.00,35.62,38.12,40.47,5.80,31.33,1014.20,2007.00,3299.22,3196.98,3466.05,350.41,310.44,20.68,0000 0000 0000 0000 000000
2013-07-25 02:11:24,0.02,0.28,0.00,35.60,38.13,40.48,5.68,31.33,1014.22,2007.00,3299.13,3196.95,3466.02,349.63,309.52,20.68,0000 0000 0000 0000 000000
2013-07-25 02:12:24,0.01,0.28,0.00,35.61,38.13,40.49,5.73,31.21,1014.23,2007.00,3299.05,3196.84,3465.99,348.98,309.10,20.69,0000 0000 0000 0000 000000
2013-07-25 02:13:25,0.03,0.28,0.00,35.65,38.13,40.50,5.70,31.38,1014.22,2007.00,3299.01,3196.68,3465.96,349.38,309.42,20.70,0000 0000 0000 0000 000000
2013-07-25 02:14:25,0.05,0.29,0.00,35.61,38.15,40.51,5.83,31.25,1014.24,2007.00,3299.00,3196.42,3465.91,351.10,310.97,20.70,0000 0000 0000 0000 000000
2013-07-25 02:15:25,0.05,0.29,0.00,35.65,38.15,40.50,5.68,31.21,1014.22,2007.00,3299.00,3196.22,3465.70,349.03,309.37,20.71,0000 0000 0000 0000 000000
2013-07-25 02:16:25,0.07,0.29,0.00,35.69,38.15,40.52,5.70,31.17,1014.22,2007.00,3299.00,3196.09,3465.46,349.64,309.61,20.71,0000 0000 0000 0000 000000
2013-07-25 02:17:26,0.05,0.29,0.00,35.66,38.17,40.52,5.74,31.42,1014.18,2006.99,3298.94,3196.04,3465.32,349.97,310.11,20.72,0000 0000 0000 0000 000000
2013-07-25 02:18:26,0.03,0.29,0.00,35.68,38.18,40.52,5.66,31.33,1014.20,2006.97,3298.84,3196.01,3465.18,350.17,310.08,20.73,0000 0000 0000 0000 000000
2013-07-25 02:19:26,0.01,0.29,0.00,35.69,38.18,40.53,5.68,31.38,1014.21,2006.97,3298.80,3196.01,3465.09,350.72,310.55,20.73,0000 0000 0000 0000 000000
2013-07-25 02:20:26,0.03,0.29,0.00,35.66,38.19,40.55,5.74,31.38,1014.19,2006.97,3298.62,3196.00,3465.03,348.99,308.78,20.74,0000 0000 0000 0000 000000
2013-07-25 02:21:27,0.03,0.29,0.00,35.65,38.20,40.56,5.81,31.25,1014.19,2006.93,3298.34,3196.00,3465.01,350.83,310.68,20.74,0000 0000 0000 0000 000000
2013-07-25 02:22:27,-0.01,0.29,0.00,35.65,38.20,40.56,5.80,31.42,1014.18,2006.90,3298.14,3195.97,3465.00,350.66,310.54,20.75,0000 0000 0000 0000 000000
2013-07-25 02:23:27,0.01,0.29,0.00,35.66,38.21,40.57,5.77,31.29,1014.21,2006.89,3298.05,3195.97,3465.00,351.08,310.90,20.76,0000 0000 0000 0000 000000
2013-07-25 02:24:28,0.02,0.29,0.00,35.66,38.22,40.58,5.69,31.17,1014.19,2006.87,3298.02,3195.93,3464.97,350.39,310.53,20.76,0000 0000 0000 0000 000000
2013-07-25 02:25:28,-0.03,0.29,0.00,35.69,38.23,40.56,5.76,31.13,1014.19,2006.76,3298.00,3195.91,3464.93,351.13,310.91,20.77,0000 0000 0000 0000 000000
2013-07-25 02:26:28,-0.05,0.29,0.00,35.69,38.23,40.57,5.78,31.46,1014.19,2006.59,3297.96,3195.68,3464.75,350.12,310.02,20.77,0000 0000 0000 0000 000000
2013-07-25 02:27:28,-0.02,0.29,0.00,35.65,38.24,40.59,5.70,31.38,1014.18,2006.44,3297.95,3195.41,3464.55,349.74,309.71,20.78,0000 0000 0000 0000 000000
2013-07-25 02:28:29,-0.06,0.29,0.00,35.67,38.25,40.60,5.67,31.42,1014.19,2006.40,3297.97,3195.24,3464.37,349.81,310.13,20.78,0000 0000 0000 0000 000000
2013-07-25 02:29:29,0.02,0.29,0.00,35.74,38.25,40.62,5.72,31.25,1014.21,2006.34,3297.86,3195.13,3464.19,351.13,310.87,20.79,0000 0000 0000 0000 000000
2013-07-25 02:30:29,0.02,0.29,0.00,35.71,38.26,40.60,5.77,31.38,1014.19,2006.21,3297.56,3195.05,3464.10,350.65,310.46,20.80,0000 0000 0000 0000 000000
2013-07-25 02:31:29,-0.04,0.29,0.00,35.78,38.27,40.63,5.74,31.25,1014.18,2006.14,3297.29,3195.01,3464.04,349.78,309.75,20.80,0000 0000 0000 0000 000000
2013-07-25 02:32:30,0.02,0.29,0.00,35.75,38.28,40.64,5.67,31.38,1014.20,2006.11,3297.10,3194.99,3464.01,349.51,309.53,20.81,0000 0000 0000 0000 000000
2013-07-25 02:33:30,-0.00,0.29,0.00,35.73,38.28,40.63,5.80,31.33,1014.19,2006.06,3297.04,3194.99,3464.00,351.16,311.23,20.81,0000 0000 0000 0000 000000
2013-07-25 02:34:30,-0.03,0.29,0.00,35.73,38.30,40.64,5.69,31.54,1014.19,2006.02,3297.01,3194.95,3463.94,348.34,308.40,20.82,0000 0000 0000 0000 000000
2013-07-25 02:35:30,-0.00,0.29,0.00,35.76,38.30,40.65,5.73,31.50,1014.18,2006.00,3297.00,3194.75,3463.75,350.71,310.45,20.83,0000 0000 0000 0000 000000
2013-07-25 02:36:31,0.04,0.29,0.00,35.78,38.30,40.66,5.73,31.42,1014.19,2006.00,3296.95,3194.60,3463.61,349.92,309.57,20.83,0000 0000 0000 0000 000000